Weather History for Worthington, MN

Change the Weather History Date:

Tuesday, November 20, 2012

  Actual Average Record
Temperature  
Mean Temperature 42 °F -  
Max Temperature 59 °F 36 °F 59 °F (1989)
Min Temperature 24 °F 22 °F 1 °F (2014)
Degree Days  
Heating Degree Days 24    
Moisture  
Dew Point 26 °F    
Average Humidity 57    
Maximum Humidity 86    
Minimum Humidity 27    
Precipitation  
Precipitation 0.00 in - - ()
Sea Level Pressure  
Sea Level Pressure 30.12 in    
Wind  
Wind Speed 9 mph (SW)    
Max Wind Speed 18 mph    
Max Gust Speed 23 mph    
Visibility 9 miles    
Events      
Averages and records for this station are not official NWS values.
T = Trace of Precipitation, MM = Missing Value Source: NWS Daily Summary

Daily Weather History Graph

Daily Weather History Graph

Search for Another Location

Airport:

Trip Planner

Search our weather history database for the weather conditions in past years. The results will help you decide how hot, cold, wet, or windy it might be!

Date:

Astronomy

Nov. 20, 2012 Rise Set
Actual Time 7:23 AM CST 4:52 PM CST
Civil Twilight 6:52 AM CST 5:23 PM CST
Nautical Twilight 6:16 AM CST 5:58 PM CST
Astronomical Twilight 5:42 AM CST 6:32 PM CST
Moon 12:51 PM CST (11/20) No Moon Set
Length of Visible Light 10h 31m
Length of Day
9h 28m
First Quarter, 51% of the Moon is Illuminated
Nov 20
First Quarter
Nov 28
Full
Dec 6
Last Quarter
Dec 13
New
Dec 19
First Quarter

Hourly Weather History & Observations

Time (CST) Temp. Windchill Dew Point Humidity Pressure Visibility Wind Dir Wind Speed Gust Speed Precip Events Conditions
12:15 AM 33.8 °F 27.0 °F 26.6 °F 75% 30.13 in 10.0 mi NNW 8.1 mph - N/A   Clear
12:35 AM 33.8 °F 26.4 °F 26.6 °F 75% 30.14 in 10.0 mi NNW 9.2 mph - N/A   Clear
12:55 AM 32.0 °F 23.6 °F 26.6 °F 80% 30.13 in 8.0 mi NNW 10.4 mph - N/A   Clear
1:15 AM 32.0 °F 24.2 °F 26.6 °F 80% 30.13 in 8.0 mi NNW 9.2 mph - N/A   Clear
1:35 AM 32.0 °F 23.0 °F 26.6 °F 80% 30.13 in 8.0 mi NNW 11.5 mph - N/A   Clear
1:55 AM 32.0 °F 23.0 °F 26.6 °F 80% 30.13 in 10.0 mi NNW 11.5 mph - N/A   Clear
2:15 AM 32.0 °F 22.5 °F 26.6 °F 80% 30.14 in 10.0 mi NNW 12.7 mph - N/A   Clear
2:35 AM 32.0 °F 24.2 °F 26.6 °F 80% 30.15 in 10.0 mi NNW 9.2 mph - N/A   Clear
2:55 AM 32.0 °F 23.6 °F 26.6 °F 80% 30.15 in 10.0 mi NNW 10.4 mph - N/A   Clear
3:15 AM 32.0 °F 24.2 °F 26.6 °F 80% 30.15 in 9.0 mi NW 9.2 mph - N/A   Clear
3:35 AM 32.0 °F 24.2 °F 26.6 °F 80% 30.15 in 8.0 mi NW 9.2 mph - N/A   Clear
3:55 AM 32.0 °F 24.2 °F 26.6 °F 80% 30.16 in 8.0 mi NW 9.2 mph - N/A   Clear
4:15 AM 30.2 °F 22.6 °F 24.8 °F 80% 30.16 in 7.0 mi NNW 8.1 mph - N/A   Clear
4:35 AM 30.2 °F 21.9 °F 24.8 °F 80% 30.16 in 7.0 mi NNW 9.2 mph - N/A   Clear
4:55 AM 28.4 °F 21.2 °F 24.8 °F 86% 30.16 in 7.0 mi NNW 6.9 mph - N/A   Clear
5:15 AM 28.4 °F - 23.0 °F 80% 30.15 in 6.0 mi Calm Calm - N/A   Clear
5:35 AM 28.4 °F 23.3 °F 24.8 °F 86% 30.16 in 5.0 mi NNW 4.6 mph - N/A   Clear
5:55 AM 30.2 °F 23.4 °F 24.8 °F 80% 30.16 in 5.0 mi NNW 6.9 mph - N/A   Clear
6:15 AM 28.4 °F 21.2 °F 21.2 °F 74% 30.17 in 5.0 mi NNW 6.9 mph - N/A   Clear
6:35 AM 26.6 °F 19.1 °F 21.2 °F 80% 30.17 in 5.0 mi NW 6.9 mph - N/A   Clear
6:55 AM 24.8 °F 19.1 °F 19.4 °F 80% 30.16 in 6.0 mi NNW 4.6 mph - N/A   Clear
7:15 AM 24.8 °F 16.9 °F 19.4 °F 80% 30.16 in 4.0 mi NNW 6.9 mph - N/A   Clear
7:35 AM 24.8 °F 19.1 °F 19.4 °F 80% 30.18 in 5.0 mi NW 4.6 mph - N/A   Clear
7:55 AM 24.8 °F 19.1 °F 19.4 °F 80% 30.18 in 5.0 mi WNW 4.6 mph - N/A   Clear
8:15 AM 26.6 °F 22.6 °F 21.2 °F 80% 30.18 in 5.0 mi NNW 3.5 mph - N/A   Clear
8:35 AM 30.2 °F 26.7 °F 24.8 °F 80% 30.19 in 5.0 mi NNW 3.5 mph - N/A   Clear
8:55 AM 33.8 °F 30.8 °F 26.6 °F 75% 30.19 in 5.0 mi NNW 3.5 mph - N/A   Clear
9:15 AM 37.4 °F - 30.2 °F 75% 30.19 in 6.0 mi Calm Calm - N/A   Clear
9:35 AM 42.8 °F - 32.0 °F 66% 30.19 in 8.0 mi Calm Calm - N/A   Clear
9:55 AM 42.8 °F - 32.0 °F 66% 30.18 in 9.0 mi Calm Calm - N/A   Clear
10:15 AM 42.8 °F 41.1 °F 33.8 °F 70% 30.18 in 9.0 mi SE 3.5 mph - N/A   Clear
10:35 AM 44.6 °F 41.4 °F 32.0 °F 61% 30.18 in 7.0 mi SE 5.8 mph - N/A   Clear
10:55 AM 46.4 °F 43.5 °F 32.0 °F 57% 30.18 in 10.0 mi SSE 5.8 mph - N/A   Clear
11:15 AM 48.2 °F - 30.2 °F 50% 30.18 in 10.0 mi South 4.6 mph - N/A   Clear
11:35 AM 51.8 °F - 28.4 °F 41% 30.17 in 10.0 mi South 6.9 mph - N/A   Clear
11:55 AM 53.6 °F - 28.4 °F 38% 30.16 in 10.0 mi South 6.9 mph - N/A   Clear
12:15 PM 53.6 °F - 28.4 °F 38% 30.16 in 10.0 mi SSW 6.9 mph - N/A   Clear
12:35 PM 55.4 °F - 24.8 °F 31% 30.15 in 10.0 mi South 6.9 mph - N/A   Clear
12:55 PM 57.2 °F - 24.8 °F 29% 30.15 in 10.0 mi SW 6.9 mph - N/A   Clear
1:15 PM 57.2 °F - 24.8 °F 29% 30.14 in 10.0 mi SSW 9.2 mph - N/A   Clear
1:35 PM 59.0 °F - 24.8 °F 27% 30.13 in 10.0 mi South 10.4 mph - N/A   Clear
1:55 PM 59.0 °F - 24.8 °F 27% 30.12 in 10.0 mi South 10.4 mph - N/A   Clear
2:15 PM 57.2 °F - 26.6 °F 31% 30.11 in 10.0 mi SSW 10.4 mph - N/A   Clear
2:35 PM 57.2 °F - 26.6 °F 31% 30.10 in 10.0 mi South 11.5 mph - N/A   Clear
2:55 PM 57.2 °F - 24.8 °F 29% 30.10 in 10.0 mi South 8.1 mph - N/A   Clear
3:15 PM 57.2 °F - 24.8 °F 29% 30.09 in 10.0 mi South 10.4 mph - N/A   Clear
3:35 PM 57.2 °F - 24.8 °F 29% 30.09 in 10.0 mi South 8.1 mph - N/A   Clear
3:55 PM 57.2 °F - 24.8 °F 29% 30.09 in 10.0 mi South 9.2 mph - N/A   Clear
4:15 PM 55.4 °F - 24.8 °F 31% 30.09 in 10.0 mi South 10.4 mph - N/A   Clear
4:35 PM 53.6 °F - 24.8 °F 33% 30.09 in 10.0 mi South 9.2 mph - N/A   Clear
4:55 PM 51.8 °F - 26.6 °F 38% 30.09 in 10.0 mi South 10.4 mph - N/A   Clear
5:15 PM 51.8 °F - 26.6 °F 38% 30.08 in 10.0 mi South 10.4 mph - N/A   Clear
5:35 PM 50.0 °F - 24.8 °F 37% 30.08 in 10.0 mi South 12.7 mph - N/A   Clear
5:55 PM 50.0 °F - 24.8 °F 37% 30.08 in 10.0 mi South 10.4 mph - N/A   Clear
6:15 PM 50.0 °F - 26.6 °F 40% 30.07 in 10.0 mi South 16.1 mph - N/A   Clear
6:35 PM 48.2 °F - 26.6 °F 43% 30.07 in 10.0 mi South 12.7 mph - N/A   Clear
6:55 PM 48.2 °F - 26.6 °F 43% 30.08 in 10.0 mi South 10.4 mph - N/A   Clear
7:15 PM 46.4 °F 41.5 °F 26.6 °F 46% 30.07 in 10.0 mi South 10.4 mph - N/A   Clear
7:35 PM 48.2 °F - 26.6 °F 43% 30.06 in 10.0 mi South 15.0 mph 19.6 mph N/A   Clear
7:55 PM 48.2 °F - 26.6 °F 43% 30.06 in 10.0 mi South 16.1 mph 20.7 mph N/A   Clear
8:15 PM 48.2 °F - 26.6 °F 43% 30.06 in 10.0 mi South 15.0 mph - N/A   Clear
8:35 PM 46.4 °F 39.5 °F 26.6 °F 46% 30.06 in 10.0 mi South 17.3 mph - N/A   Clear
8:55 PM 46.4 °F 39.2 °F 26.6 °F 46% 30.05 in 10.0 mi South 18.4 mph - N/A   Clear
9:15 PM 46.4 °F 39.5 °F 26.6 °F 46% 30.05 in 10.0 mi South 17.3 mph - N/A   Clear
9:35 PM 46.4 °F 39.5 °F 26.6 °F 46% 30.05 in 10.0 mi South 17.3 mph 23.0 mph N/A   Clear
9:55 PM 44.6 °F 37.2 °F 26.6 °F 49% 30.05 in 10.0 mi South 17.3 mph 23.0 mph N/A   Clear
10:15 PM 44.6 °F 36.9 °F 28.4 °F 53% 30.04 in 10.0 mi South 18.4 mph - N/A   Clear
10:35 PM 44.6 °F 37.2 °F 28.4 °F 53% 30.03 in 10.0 mi South 17.3 mph - N/A   Clear
10:55 PM 44.6 °F 37.2 °F 28.4 °F 53% 30.02 in 10.0 mi South 17.3 mph - N/A   Clear
11:15 PM 44.6 °F 36.9 °F 28.4 °F 53% 30.02 in 10.0 mi South 18.4 mph - N/A   Clear
11:35 PM 46.4 °F 39.5 °F 28.4 °F 50% 30.02 in 10.0 mi South 17.3 mph 23.0 mph N/A   Clear
11:55 PM 46.4 °F 39.5 °F 28.4 °F 50% 30.01 in 10.0 mi South 17.3 mph - N/A   Clear